Regional Weather Roundup
Issued by NWS Green Bay, WI

Home | Current Version | Previous Version | Text Only | Print | Product List | Glossary On
Versions: 1 2 3 4 5 6 7 8 9 10 11 12 13 14 15 16 17 18 19 20 21 22 23 24 25 26 27 28 29 30 31 32 33 34 35 36 37 38 39 40 41 42 43 44 45 46 47 48 49 50
000
ASUS43 KGRB 040310
RWRGRB

NORTH-CENTRAL AND NORTHEAST WISCONSIN REGIONAL WEATHER ROUNDUP
NATIONAL WEATHER SERVICE GREEN BAY WI
900 PM CST TUE MAR 03 2015

WIZ005-009-010>012-018-019-040400-
NORTH CENTRAL WISCONSIN

CITY           SKY/WX    TMP DP  RH WIND       PRES   REMARKS
IRONWOOD       CLOUDY    18   7  62 W21G26    29.69R WCI   1
MANITOWISH WTR PTCLDY    14   4  66 W12       29.68R WCI   0
ARBOR VITAE      N/A     18   9  68 NW10G17   29.68R WCI   6
EAGLE RIVER    PTCLDY    17   6  64 W13       29.65R WCI   3
LAND O LAKES   FLURRIES  18  11  75 NW10      29.65R WCI   6
RHINELANDER    CLEAR     18   8  65 W16G25    29.68R WCI   3
PHILLIPS       CLEAR     15   5  64 NW5       29.71R WCI   8
ANTIGO         CLOUDY    22  15  76 NW15      29.69R WCI   8
TOMAHAWK       CLEAR     19   9  65 W7        29.71R WCI   9
MERRILL        CLEAR     22  10  60 NW13G21   29.71R
$$

WIZ013-073-040400-
NORTHEAST WISCONSIN

CITY           SKY/WX    TMP DP  RH WIND       PRES   REMARKS
IRON MOUNTAIN  FLURRIES  23  15  71 NW18      29.61R WCI   9
MARINETTE      PTCLDY    28  18  64 W5        29.68R
OCONTO         PTCLDY    26  20  79 W6        29.71R
$$

WIZ017-030-035>037-045-040400-
CENTRAL WISCONSIN

CITY           SKY/WX    TMP DP  RH WIND       PRES   REMARKS
MEDFORD        CLEAR     19   7  61 W14G22    29.74R WCI   5
WAUSAU         PTCLDY    23  13  65 W14       29.72R
MOSINEE        MOCLDY    25  18  74 W15G23    29.74R
MARSHFIELD     CLEAR     21  10  62 NW17G25   29.77R WCI   7
WISC RAPIDS    MOCLDY    26  13  57 NW13G24   29.78R
STEVENS POINT  PTCLDY    23  10  59 W17G28    29.76R WCI   9
WAUPACA        MOCLDY    29  17  60 W9G18     29.76R
SHAWANO        CLEAR     29  20  70 W7        29.73R
CLINTONVILLE   MOCLDY    28  19  69 W13       29.73R
$$

WIZ038-039-048-051-040400-
FOX VALLEY

CITY           SKY/WX    TMP DP  RH WIND       PRES   REMARKS
NWS GREEN BAY  CLOUDY    29  20  69 W14       29.73R
APPLETON       CLOUDY    28  18  64 W16G23    29.74R
OSHKOSH        CLOUDY    29  20  69 W9        29.75R
FOND DU LAC    CLOUDY    30  21  69 W10       29.76R
$$

WIZ022-050-052-040400-
EAST CENTRAL WISCONSIN

CITY           SKY/WX    TMP DP  RH WIND       PRES   REMARKS
STURGEON BAY   CLOUDY    27  19  74 W12G17    29.71R
MANITOWOC      CLOUDY    28  23  81 W10       29.74R
SHEBOYGAN      CLOUDY    30  21  69 W12G21    29.75R
$$

LMZ563-521-522-541>543-040400-
LAKESHORE

STATION/POSITION TIME  TEMP    WIND        PRES    VSBY  WAVE
                       AIR SEA DIR/SP/G                  HT/PER
                 (UTC) (F)     (DEG/KT/KT) (MB)    (MI)  (FT/S)
SHEBOYGAN LKSHOR 0300   31     270/  6/  9 1008.8R
KEWAUNEE LKSHORE 0300   29     270/ 10/ 15 1005.4R
NORTHPORT PIER   0300   27     260/  4/ 11 1004.4R
SISTER BAY LKSHO 0300   22     260/ 11/ 12   N/A
CHAMBERS ISLAND  0300   27     220/  7/ 14 1005.1R
MENOMINEE LKSHOR 0300   29     250/  9     1005.7R
$$


USA.gov is the U.S. government's official web portal to all federal, state and local government web resources and services.